Regional Weather Roundup
Issued by NWS

Home | Current Version | Previous Version | Graphics & Text | Print | Product List | Glossary On
Versions: 1 2 3 4 5 6 7 8 9 10 11 12 13 14 15 16 17 18 19 20 21 22 23 24 25 26 27 28 29 30 31 32 33 34 35 36 37 38 39 40 41 42 43 44 45 46 47 48 49 50
355
ASUS44 KLIX 210110
RWRLA
LOUISIANA WEATHER ROUNDUP
NATIONAL WEATHER SERVICE NEW ORLEANS LA
800 PM CDT SUN APR 20 2014

NOTE: "FAIR" INDICATES FEW OR NO CLOUDS BELOW 12,000 FEET WITH NO
      SIGNIFICANT WEATHER AND/OR OBSTRUCTIONS TO VISIBILITY.
      SKY/WX - SKY CONDITION AND SIGNIFICANT WEATHER.
      TMP - AIR TEMPERATURE.    DP   - DEWPOINT TEMPERATURE.
      RH  - RELATIVE HUMIDITY.  PRES - PRESSURE.
      HX  - HEAT INDEX.         WCI  - WIND CHILL INDEX.

*  THESE STATIONS ARE NOT NWS OR FAA STATIONS AND ARE NOT UNDER
   NWS QUALITY CONTROL.

LAZ040-048-061>063-065-066-069-210200-
SOUTHEAST LOUISIANA

CITY           SKY/WX    TMP DP  RH WIND       PRES   REMARKS
N.O. AUDUBON     N/A     73  63  68 MISG        N/A
N.O. INTL ARPT PTCLDY    72  61  68 S7        30.10R
N.O. LAKEFRONT CLEAR     73  60  63 SE7       30.11R
N.O. DOWNTOWN* FAIR      75  57  53 S7        30.11R
SLIDELL        CLEAR     69  60  73 SE7       30.10R
BATON ROUGE    CLEAR     74  54  49 SE3       30.07S
BOOTHVILLE     CLEAR     62  58  86 E6        30.13R
BELLE CHASSE   CLEAR    N/A N/A N/A SE6       30.10R
BOGALUSA*        N/A     69  57  65 CALM      30.11R
GALLIANO*      CLEAR     68  62  79 SE3       30.11R
NEW ROADS*     FAIR      74  55  51 CALM      30.07S
GONZALES*      FAIR      71  56  57 CALM      30.08S
HAMMOND*       CLEAR     72  55  56 CALM      30.10S
HOUMA*           N/A     69  61  75 S3        30.11R
PORT FOURCHON* CLEAR     68  61  77 SE6       30.13R

$$

LAZ041-044-053-054-210200-
SOUTHWEST LOUISIANA

CITY           SKY/WX    TMP DP  RH WIND       PRES   REMARKS
LAKE CHARLES   CLEAR     69  59  70 S3        30.08S
LAFAYETTE      CLEAR     74  55  51 S9        30.08R
PATTERSON      CLEAR     70  57  64 S8        30.14S
SALT POINT       N/A     72  65  78 SE3       30.10R
NEW IBERIA     CLEAR     71  56  58 SW7       30.09S
CHENAULT AIRPK CLEAR     73  55  53 S8        30.10R

$$

LAZ027-028-210200-
CENTRAL LOUISIANA

CITY           SKY/WX    TMP DP  RH WIND       PRES   REMARKS
FORT POLK      CLEAR     72  55  55 S5        30.07R
ALEXANDRIA INT MOCLDY    75  55  49 S5        30.05R
ALEXANDRIA     CLEAR     70  57  63 CALM      30.07R

$$

LAZ001-002-210200-
NORTHWEST LOUISIANA

CITY           SKY/WX    TMP DP  RH WIND       PRES   REMARKS
SHREVEPORT     CLOUDY    72  57  59 CALM      30.06R
BARKSDALE AFB  PTCLDY    76  55  47 CALM      30.06R
DTN SHREVEPORT MOCLDY    71  56  58 CALM      30.06R

$$

LAZ014-016-210200-
NORTHEAST LOUISIANA

CITY           SKY/WX    TMP DP  RH WIND       PRES   REMARKS
MONROE         MOCLDY    70  59  68 CALM      30.07R
TALLULAH       PTCLDY    72  56  57 E6        30.07S

$$




USA.gov is the U.S. government's official web portal to all federal, state and local government web resources and services.